Weather in Antsalova

Madagascar     18°39′56″S   44°37′51″E
temp.,
°C
wind,
m/s
gust,
m/s
humid.,
%
clouds,
%
prec.,
mm/h
press.,
hPa
HPBL,
m
9 december, thu
thu900:00+23se11890 1.1 101417
03:00+23ene11914 4.6 101415
06:00+24ne24820 0.1 101498
09:00+32n34390 0.1 10151402
12:00+37nnw332627 0.0 10123361
15:00+31wsw4650100 0.0 1011961
18:00+28w466173 0.0 1012827
21:00+25w128193 0.0 101478
10 december, fri
fri1000:00+23e119233 2.4 101415
03:00+23sse1192100 4.5 101322
06:00+24ne1187100 0.0 101331
09:00+32nne124837 0.0 1014903
12:00+38w223080 0.0 10112819
15:00+26w4878100 1.2 1011314
18:00+25w2584100 0.5 1012385
21:00+24nnw1291100 2.1 1013123
11 december, sat
sat1100:00+24sse139498 2.5 1013121
03:00+23sse01935 2.7 101211
06:00+24e1186100 0.0 101338
09:00+29ene2459100 0.4 1014942
12:00+34nnw2340100 0.1 10122417
15:00+34nw2238100 0.2 10101732
18:00+27w3568100 0.2 1011353
21:00+25sw118295 0.4 101424
12 december, sun
sun1200:00+23ese2292100 5.9 101452
03:00+24ene1186100 10.7 101324
06:00+24ene1184100 0.1 101431
09:00+30ne345282 0.2 1015976
12:00+34nw133721 0.0 10131776
15:00+35w333198 0.0 10112670
18:00+28wnw486450 0.0 1011549
21:00+24sse378899 3.6 1015233
13 december, mon
mon1300:00+22ne2290100 5.4 101474
03:00+22ene1187100 5.5 101226
06:00+23ene1285100 0.0 101466
09:00+30nne465136 0.0 1014957
12:00+35nnw33357 0.0 10122129
15:00+35wnw323367 0.0 10092576
18:00+28w466729 0.2 1010552
21:00+22se61286100 7.9 1014397